Wind_Speed
23 25 27 29 31 31 31 30 29 29 30 31 31 32 32 30 28 28 27 24 23 22 20 18 17 16 16 15 14 12 11 10 11 13 14 15 15 16 16 17 19 20 21 22 21 17 14 19 28 33 33 32 32 31 30 27 25 24 23 23 24 24 26 26 25 24 24 24 25 25 23 22 22 20 19 20 21 21 22 23 23 24 25 25 24 23 21
23 21 20 21 26 32 33 31 31 30 30 31 32 32 32 31 30 29 27 25 24 23 21 20 18 18 18 17 16 15 13 11 11 11 12 13 14 15 14 13 13 14 16 18 19 18 16 16 20 24 27 28 28 29 29 27 25 25 24 25 27 26 27 28 27 26 26 25 26 25 24 24 24 22 21 20 20 21 22 23 23 24 25 25 24 24 24
24 23 22 19 19 24 30 32 32 31 31 32 32 33 33 32 31 30 28 28 27 25 23 21 19 18 18 18 17 17 15 13 11 11 11 12 13 13 13 12 10 9 12 16 17 18 18 18 19 21 23 26 27 29 29 28 27 26 26 27 28 28 27 26 27 27 27 26 25 24 25 25 25 24 23 21 21 21 22 23 23 23 23 23 23 23 24
24 24 23 21 18 17 23 30 32 32 32 33 33 34 34 33 32 31 30 29 27 26 23 21 19 19 18 18 18 19 17 15 14 12 12 13 13 12 12 12 11 9 10 14 16 17 18 18 18 19 21 24 28 30 30 28 28 28 27 27 28 28 26 25 26 27 27 26 25 25 25 25 26 26 25 23 21 21 23 24 24 24 25 25 24 23 23
24 25 23 22 19 18 19 23 28 32 34 34 34 34 34 33 32 31 31 29 27 26 24 22 20 19 19 18 18 19 18 17 16 15 14 14 14 13 13 12 11 10 11 13 15 16 16 16 15 15 16 18 22 26 28 29 29 29 28 27 27 28 27 25 25 26 27 26 26 24 24 25 26 26 25 25 24 24 26 26 25 26 26 25 24 23 21
22 22 23 23 21 21 20 20 22 26 30 33 35 35 35 34 32 31 30 29 28 27 26 24 22 21 20 19 18 19 19 18 18 17 16 15 15 14 14 13 12 11 12 14 16 16 14 14 14 13 13 16 18 20 24 28 30 30 27 26 27 28 28 27 26 27 27 27 26 25 25 26 26 26 26 26 26 26 27 25 24 23 23 22 22 21 21
19 19 21 22 21 20 21 20 20 21 23 26 32 35 35 34 32 31 30 30 29 29 28 27 25 23 21 20 19 19 20 19 19 19 18 17 17 16 15 15 14 14 14 15 16 16 15 15 16 15 15 17 19 19 22 25 29 29 27 27 29 29 28 28 28 29 29 30 29 28 28 28 29 29 28 27 25 24 24 24 23 23 22 22 22 21 20
14 17 19 20 19 18 18 18 18 19 19 19 24 29 32 33 32 31 31 31 31 31 30 30 28 25 23 22 20 19 19 20 21 21 21 20 20 19 18 17 17 17 17 16 16 17 18 18 18 18 18 20 20 21 22 24 27 28 27 27 28 28 28 29 30 30 30 30 30 29 28 28 29 29 27 25 24 23 22 22 23 23 23 23 23 22 21
10 12 14 16 17 18 17 15 14 14 13 12 14 18 23 28 31 32 31 31 31 31 31 30 30 28 25 23 22 21 20 20 20 21 22 23 23 22 22 21 21 20 19 19 19 19 20 20 20 20 21 23 24 24 24 24 25 27 27 27 28 28 28 29 29 28 27 27 27 26 26 26 27 26 25 25 25 24 23 23 24 25 25 25 24 24 23
13 12 14 16 17 18 18 16 14 12 10 8 8 11 14 19 25 28 30 30 30 31 31 31 31 30 27 26 24 23 22 22 21 21 22 24 25 25 25 25 25 24 22 22 22 21 21 21 21 21 23 25 27 27 26 26 26 27 28 28 29 28 27 27 27 27 26 26 26 26 25 25 26 26 27 27 27 27 26 26 26 27 27 27 27 27 26
20 18 17 17 17 17 18 18 16 15 13 12 10 11 12 13 16 20 24 27 27 28 30 32 32 31 29 28 26 25 25 25 25 24 23 24 25 26 26 27 28 27 25 24 24 23 23 22 22 23 25 26 27 27 28 28 29 29 28 27 27 28 27 27 27 28 28 28 28 28 29 29 29 30 30 30 30 30 30 30 29 30 30 30 30 29 29
19 19 19 19 19 18 18 17 16 15 14 14 13 13 12 12 13 15 18 21 23 24 26 29 31 32 32 30 29 27 26 27 27 27 25 26 26 26 27 28 29 29 28 27 26 25 25 24 24 25 27 28 28 27 28 28 29 30 30 28 28 29 29 29 30 30 30 31 31 32 32 33 33 32 32 32 32 32 32 31 31 31 31 31 30 30 30
16 16 17 18 19 19 19 18 17 16 15 14 15 14 13 13 13 13 14 16 19 21 23 25 28 30 31 32 31 29 27 28 31 31 28 26 27 28 28 28 28 29 29 29 28 28 27 27 27 28 29 30 30 28 28 29 30 31 31 31 31 31 31 31 31 31 32 32 33 34 34 34 34 33 32 32 32 32 32 31 31 32 31 31 30 30 31
14 13 13 13 15 17 18 18 17 17 16 16 15 15 15 14 13 13 14 17 20 20 18 19 23 26 28 30 31 31 29 28 28 29 28 26 26 28 29 28 28 29 29 29 30 30 30 29 29 29 31 33 34 32 31 32 33 33 33 34 34 34 33 32 32 32 32 33 33 34 34 34 34 33 33 33 33 33 33 32 32 32 32 31 31 31 33
11 10 10 10 11 13 14 14 15 15 16 16 15 15 16 15 13 14 16 20 23 22 17 15 16 18 21 24 27 31 33 29 25 24 26 26 26 27 27 27 28 29 30 30 30 31 32 32 31 30 30 33 36 37 36 36 36 36 36 36 36 36 34 33 33 33 33 33 33 34 34 34 35 34 34 33 33 33 33 33 34 34 34 34 34 35 37
10 10 10 9 9 10 10 11 12 13 15 16 15 16 17 17 17 18 17 18 20 22 22 20 19 18 19 20 22 27 33 35 33 29 28 28 29 29 29 29 30 30 31 31 32 32 32 33 32 29 29 33 38 40 40 40 40 40 39 38 38 37 36 34 34 33 33 33 34 34 34 34 34 34 34 33 34 34 35 35 36 37 37 37 38 39 39
8 8 8 8 9 10 10 10 10 11 12 13 14 15 16 17 19 20 20 19 18 19 22 24 24 23 21 19 19 21 25 28 31 30 29 28 29 32 34 35 34 33 32 32 32 32 32 32 32 30 30 34 40 43 43 44 44 43 42 41 40 38 36 34 34 34 34 34 34 34 35 35 35 34 33 34 34 35 36 36 38 39 40 41 42 42 43
6 6 7 8 9 10 11 11 11 11 12 12 12 12 14 15 16 17 19 19 18 18 20 22 23 23 22 20 21 21 20 21 22 24 26 26 27 29 33 35 34 32 31 32 33 33 33 32 32 32 33 36 40 41 42 43 44 43 43 41 40 38 36 35 35 36 36 35 35 35 35 36 36 36 36 36 36 38 39 40 41 43 44 45 46 47 48
5 6 6 8 9 9 10 11 12 13 14 15 15 14 14 16 16 16 17 18 17 18 20 20 21 22 22 22 24 24 23 23 23 24 25 27 27 28 29 30 30 30 30 31 32 32 32 31 31 32 34 36 37 36 35 36 37 38 38 38 38 37 37 38 38 39 38 37 37 36 35 35 36 37 38 40 41 42 43 44 45 46 47 47 48 49 50
4 5 6 7 8 9 11 12 13 14 15 17 18 18 18 18 19 19 18 19 19 20 21 20 20 22 23 24 26 27 27 27 27 28 29 29 28 28 29 29 29 29 31 32 32 31 31 30 30 31 32 32 32 32 32 32 33 34 35 35 36 37 38 39 40 40 40 38 37 37 37 37 38 39 41 42 43 44 45 45 46 46 46 46 47 47 48
1 2 3 5 7 9 10 12 13 14 16 17 19 20 20 21 22 22 23 23 23 23 23 22 22 22 23 25 27 28 29 30 31 32 33 33 32 31 31 31 31 31 31 32 32 32 31 31 31 31 32 32 32 33 33 33 33 34 35 35 36 37 37 38 39 39 39 38 38 39 39 39 40 40 41 42 42 43 43 44 44 44 44 45 46 47 48
4 4 5 5 6 7 9 11 12 13 15 16 18 19 21 22 23 24 25 26 26 26 26 26 25 24 24 25 26 27 28 30 32 33 33 33 32 32 32 32 32 32 32 32 32 32 32 31 31 31 32 32 33 33 34 34 35 35 35 35 36 36 37 37 38 38 39 39 39 39 39 40 40 40 41 41 42 43 44 44 45 46 47 48 49 50 51
6 7 8 9 9 11 12 13 14 15 16 17 18 18 19 21 22 23 24 25 27 28 28 29 29 29 28 26 26 27 27 28 30 32 33 33 32 32 33 33 33 32 32 31 32 32 32 31 31 30 30 31 32 32 33 33 34 35 35 36 36 37 38 39 39 39 40 40 40 40 40 41 41 42 43 44 44 45 46 47 48 49 50 51 53 54 55
7 8 10 11 12 13 14 15 17 18 19 20 20 21 22 22 23 23 24 25 25 26 27 28 29 31 31 31 30 30 29 30 30 31 33 34 34 34 35 36 37 36 35 34 34 34 34 34 33 32 32 32 32 33 33 34 34 35 36 37 38 39 40 40 41 41 41 41 42 43 43 44 45 45 46 47 47 48 49 50 51 52 53 54 55 56 58
10 11 12 13 14 16 17 18 19 19 21 22 23 24 25 25 26 26 27 27 27 27 28 28 28 29 30 32 33 34 34 34 34 34 34 34 34 34 35 36 37 39 40 40 40 39 39 38 38 37 37 36 36 36 36 36 37 37 38 38 39 40 40 41 42 42 43 43 44 45 46 47 48 49 49 50 50 51 51 52 53 54 55 56 57 58 59
12 13 14 15 16 18 20 21 22 23 24 24 25 26 27 28 29 30 30 30 30 30 30 31 31 30 30 31 32 33 34 36 37 38 39 38 37 36 36 36 37 38 39 40 41 42 42 42 42 41 41 41 40 40 40 40 40 40 40 40 40 41 41 42 42 43 44 44 45 46 47 48 49 50 50 51 52 52 52 53 53 54 54 55 55 56 57
12 13 14 16 17 19 22 24 26 28 28 29 29 29 29 30 31 32 32 33 33 33 33 34 34 34 34 34 34 33 34 34 36 38 39 41 41 42 41 41 41 42 42 42 42 43 43 44 44 43 43 43 42 42 43 43 43 43 43 43 43 43 43 43 43 43 44 44 44 45 45 46 47 48 49 49 50 50 51 51 51 51 51 51 52 52 53
13 15 16 18 19 21 23 26 29 31 33 34 35 35 34 34 34 34 34 35 35 35 35 36 36 36 37 37 38 38 37 37 37 37 38 39 40 41 43 43 44 44 44 44 44 44 44 44 44 44 44 44 44 44 44 44 44 44 44 44 44 44 43 43 43 43 43 43 43 43 44 44 45 45 46 47 47 48 48 48 49 49 48 48 48 48 48
16 17 18 19 20 23 26 29 31 32 32 32 32 33 33 33 33 33 33 34 34 35 35 36 36 37 37 38 39 41 41 41 40 40 39 39 39 40 40 41 42 42 43 43 43 43 43 43 43 43 43 43 43 43 43 43 42 42 42 42 42 41 41 41 41 41 41 41 41 41 42 42 43 43 44 44 44 44 44 44 44 44 43 43 43 43 44
17 18 18 19 22 25 28 31 33 32 29 26 25 24 24 25 25 26 26 27 28 30 31 32 33 34 35 36 38 40 41 43 43 43 42 42 41 41 40 40 40 40 40 40 40 40 40 40 40 41 41 41 41 41 40 40 40 40 40 39 39 39 39 39 39 39 39 39 39 39 39 39 39 40 40 40 40 39 39 38 39 38 38 38 39 39 39
17 18 19 20 23 27 30 33 33 30 26 23 22 21 21 21 21 21 21 21 23 24 26 28 29 30 32 33 34 35 37 40 42 43 43 43 43 42 42 41 40 40 40 39 39 38 38 37 37 37 37 37 38 38 37 37 37 38 38 38 37 37 37 37 37 37 37 36 36 36 36 36 36 36 36 36 35 35 34 35 35 35 35 35 35 36 36
17 18 19 21 24 27 30 32 31 28 24 23 22 21 20 20 20 19 19 19 20 21 23 24 26 28 29 30 31 32 33 35 36 38 40 41 42 42 41 41 40 40 39 39 38 38 37 36 36 35 34 34 34 34 34 34 34 34 34 34 34 34 34 34 34 34 33 33 33 33 33 33 33 33 32 32 32 32 32 33 33 33 33 33 33 33 33
18 18 19 21 24 27 30 31 30 27 24 23 23 22 20 19 18 17 16 17 17 18 18 20 21 22 24 26 27 29 30 30 31 32 34 35 37 38 39 39 39 39 38 38 37 37 36 36 35 34 33 33 32 32 32 31 31 32 31 31 31 31 31 31 31 31 31 31 30 30 31 31 31 30 31 31 31 31 31 31 31 31 30 30 29 29 29
18 18 20 21 24 26 28 30 29 26 25 23 23 22 20 18 17 16 15 15 16 16 16 16 17 17 18 20 22 24 25 26 27 27 28 29 30 32 33 34 35 35 36 35 35 35 35 34 34 33 33 32 32 31 31 31 31 31 30 30 30 30 29 30 30 29 29 29 29 29 29 29 29 29 29 29 29 29 29 29 28 28 27 26 26 25 25
18 18 19 21 23 25 27 28 28 26 24 23 22 21 19 17 16 15 15 15 15 15 15 15 16 16 17 17 19 20 21 22 23 24 24 25 26 27 28 29 30 31 32 32 32 32 32 32 32 32 32 31 31 31 30 30 30 30 29 29 29 28 28 28 28 28 28 27 27 27 27 27 27 27 27 27 27 27 27 26 25 25 24 23 23 23 23
17 18 19 20 22 24 26 27 27 26 24 23 22 21 19 16 15 15 15 15 15 15 15 15 16 16 16 17 17 18 19 20 21 21 22 22 23 24 25 26 27 28 29 29 30 30 30 30 30 30 30 30 29 29 29 29 28 28 28 28 27 27 27 27 27 26 26 26 25 25 25 25 25 25 25 25 25 25 25 24 23 23 22 22 22 23 23
17 18 19 20 22 24 25 26 26 25 24 23 22 20 19 17 15 15 15 15 15 14 14 14 15 15 16 16 17 17 17 18 19 19 20 21 22 22 23 24 25 26 26 27 27 28 28 28 28 28 28 27 27 27 27 27 27 27 26 26 26 26 25 25 25 24 24 24 24 24 24 23 23 23 23 24 24 23 23 23 23 22 22 22 22 23 23
18 18 19 20 22 23 25 26 26 26 25 24 22 21 19 17 15 15 15 15 15 14 14 14 15 15 16 16 16 16 17 17 17 18 19 19 20 21 22 22 23 23 24 24 24 25 25 25 25 25 25 25 26 26 25 25 25 25 25 25 25 25 24 24 24 24 23 23 23 23 22 22 22 22 22 22 22 22 22 22 22 22 22 22 22 22 23
18 19 19 21 22 23 24 25 26 26 25 24 22 21 20 18 16 15 15 15 16 16 15 15 15 16 16 16 16 16 16 16 16 17 18 18 19 20 21 21 21 22 22 23 23 23 23 23 23 23 23 23 24 24 24 24 24 24 24 24 24 24 23 23 23 23 23 22 22 22 21 21 21 21 21 21 21 21 21 21 21 21 21 22 22 22 22
18 18 19 20 21 22 23 24 25 25 25 24 22 21 20 19 18 16 15 15 16 16 17 17 16 16 16 16 16 15 15 15 16 16 17 18 18 19 20 20 20 21 21 21 21 21 22 22 22 22 22 23 23 23 23 23 23 23 23 23 23 23 23 22 22 22 22 21 21 21 21 20 20 20 20 20 21 21 21 21 21 21 21 21 21 21 22
18 18 19 20 21 22 22 23 24 24 24 24 23 22 21 20 19 19 18 17 16 17 17 17 17 17 17 17 16 16 15 15 15 16 16 16 17 17 18 19 19 19 20 20 20 20 20 20 21 21 21 22 22 22 22 22 22 22 22 22 22 22 22 22 22 21 21 20 20 20 20 19 19 19 19 20 20 20 20 20 20 20 20 21 21 22 23
19 19 19 20 21 21 22 22 23 23 23 23 22 22 21 20 20 19 19 18 17 17 17 17 17 17 17 17 18 17 17 17 17 16 16 16 16 16 17 18 18 19 19 19 19 19 19 19 20 20 21 21 21 21 21 21 21 21 21 21 21 22 22 22 21 21 20 20 20 19 19 19 18 18 19 19 20 20 20 20 19 20 20 21 22 23 24
19 19 19 19 20 21 21 22 22 23 23 22 22 21 21 20 20 20 20 19 18 17 16 16 16 16 17 17 17 18 18 18 19 18 18 18 18 17 17 17 17 18 18 18 18 18 18 18 19 20 20 21 21 21 21 20 20 21 21 21 21 22 22 21 21 20 20 20 20 19 19 18 18 18 19 19 19 19 19 19 19 19 20 21 22 23 25
19 19 19 20 20 20 20 21 21 22 22 22 22 21 21 20 20 20 20 20 19 18 16 15 15 15 16 16 16 17 18 18 19 20 20 20 20 19 18 18 18 18 18 18 18 18 18 18 19 19 20 20 21 21 20 20 20 20 21 21 21 21 21 21 20 20 20 20 20 19 18 18 18 18 19 19 19 19 18 19 19 20 21 22 23 24 25
19 19 20 20 20 20 20 20 21 21 22 22 22 21 21 20 20 20 19 20 20 19 17 16 15 15 15 16 16 17 17 18 18 19 19 20 20 20 19 18 18 18 18 19 18 18 18 18 18 19 19 20 20 20 20 20 20 20 21 21 21 21 21 20 20 21 21 20 19 19 18 18 18 18 18 19 18 18 18 19 19 20 21 22 23 24 25
19 20 20 21 21 21 21 21 21 21 21 21 21 21 21 21 20 20 19 19 20 20 18 17 15 14 15 15 16 17 17 18 18 19 19 20 20 20 19 19 18 18 18 18 18 18 18 18 18 18 19 19 20 20 20 20 20 20 20 20 20 20 20 20 21 21 21 21 20 19 19 19 19 19 19 19 19 18 18 19 19 20 21 22 23 24 25
20 20 21 21 21 21 21 21 20 20 20 21 21 21 21 21 20 20 19 19 19 20 19 17 16 15 14 15 15 16 17 18 18 19 19 20 20 20 19 19 18 17 17 17 17 18 18 18 18 17 18 18 19 20 20 20 20 20 20 20 20 20 20 20 21 22 23 23 22 22 21 21 20 20 19 19 18 18 18 18 19 20 20 21 22 22 24
21 21 21 21 21 22 21 21 21 21 21 21 21 21 21 21 21 20 20 20 20 19 19 18 17 16 15 15 15 15 15 16 16 16 17 17 18 18 18 18 17 17 17 17 17 17 17 17 17 17 17 17 18 19 19 19 19 19 19 20 20 20 20 21 23 25 25 24 24 23 22 22 21 20 19 19 18 18 17 18 18 19 20 20 20 21 22
23 23 22 22 22 22 22 22 22 21 21 21 21 21 21 22 22 21 21 20 20 20 19 19 18 17 17 16 15 14 13 14 14 14 14 15 15 16 16 16 17 16 16 16 16 16 16 16 16 16 16 16 17 18 18 19 19 19 18 19 19 20 21 23 25 25 25 24 24 23 23 22 21 21 20 19 18 17 17 17 18 18 19 19 19 19 19
26 25 25 24 23 23 23 23 22 22 22 22 22 22 22 22 22 22 21 21 20 20 20 20 20 19 18 17 16 15 14 14 14 14 13 13 13 13 14 14 15 15 15 15 15 15 15 16 16 16 15 15 16 17 17 18 18 18 18 18 19 21 23 24 25 25 24 24 23 23 22 22 21 20 19 19 18 18 17 17 18 18 18 17 17 17 18
26 27 26 26 25 24 24 24 24 24 23 23 23 23 23 23 23 23 22 21 20 20 20 21 20 20 19 18 18 17 16 15 14 13 12 11 11 11 11 11 11 12 12 13 13 14 14 15 15 15 14 14 14 15 16 17 17 17 18 19 20 22 23 25 25 24 24 24 23 23 23 22 21 21 20 20 19 18 18 18 18 18 18 17 16 16 16
26 27 27 27 26 26 25 25 25 25 25 25 25 24 24 24 24 24 23 22 21 20 21 21 21 21 21 21 20 19 18 17 16 15 14 13 12 11 10 9 9 10 10 11 11 12 12 13 14 14 13 13 13 14 15 16 17 18 19 20 20 21 22 23 23 24 24 24 23 23 23 22 22 22 21 20 20 19 19 18 18 18 18 18 17 16 16
Wind_Direction
237 237 239 238 235 235 237 238 237 236 236 236 237 239 243 246 249 253 254 253 255 259 262 262 260 258 260 259 258 261 264 261 254 249 250 250 251 252 251 248 250 253 252 246 241 240 235 217 207 203 207 216 222 227 233 233 231 228 222 219 221 219 216 215 216 217 222 227 231 232 228 224 223 225 228 231 235 237 239 240 240 240 242 245 248 250 250
240 242 245 242 236 234 235 237 238 237 236 237 237 237 241 245 247 251 253 253 256 259 260 260 259 256 256 256 256 258 261 262 263 260 257 255 253 252 250 246 244 245 238 229 228 230 225 215 210 210 215 218 219 223 229 230 229 227 221 217 218 218 215 214 214 218 222 228 231 229 227 226 226 228 233 237 240 241 240 240 240 241 243 246 250 253 254
241 243 247 250 244 235 232 234 237 238 237 237 237 238 239 242 244 247 251 252 254 257 258 258 257 255 254 254 253 255 256 256 258 261 260 259 259 253 246 240 233 226 224 222 222 223 219 216 218 219 220 222 222 222 225 228 228 226 222 221 220 218 215 213 215 220 224 228 232 231 228 228 229 232 237 242 242 240 239 240 241 241 241 245 252 257 259
241 242 244 248 249 241 232 231 233 236 237 238 237 238 239 240 243 246 248 250 251 252 255 256 256 255 254 253 252 253 254 251 250 253 258 262 264 255 244 237 231 221 218 219 217 216 214 215 219 221 222 227 228 226 225 226 226 224 223 224 222 218 214 212 217 225 228 231 234 233 230 230 233 236 240 242 241 240 241 242 244 245 247 251 254 256 259
237 239 240 243 245 245 238 233 232 233 236 238 238 238 238 239 241 244 246 247 249 250 251 252 253 255 254 253 252 251 250 248 246 248 253 258 261 257 248 240 233 229 227 221 212 209 208 209 213 217 219 221 226 229 228 223 219 219 220 221 221 220 216 216 221 227 230 229 231 232 232 233 237 241 244 244 242 243 245 247 250 252 253 253 250 248 255
232 236 237 238 239 242 243 241 238 235 234 235 236 236 237 238 239 242 244 247 248 250 250 250 250 252 252 251 250 248 246 243 241 243 246 249 252 252 249 246 242 240 236 225 215 211 213 211 207 205 207 214 220 228 232 225 216 216 219 219 221 224 223 223 227 228 227 226 229 233 235 237 240 243 245 246 244 243 246 248 252 253 251 249 245 245 250
221 221 226 230 232 236 242 245 245 241 238 238 236 235 234 236 238 241 243 245 247 248 250 251 251 249 247 247 246 245 243 239 237 237 238 240 243 245 244 243 243 240 235 227 222 223 227 224 217 211 214 223 228 228 232 229 219 215 217 217 220 225 227 229 232 230 227 226 230 236 238 238 239 242 245 248 248 248 249 250 251 250 247 245 244 245 249
207 212 223 226 225 230 237 240 242 239 236 236 237 235 233 234 238 241 243 245 246 248 249 251 251 248 245 244 243 242 241 237 234 234 236 236 237 239 239 239 238 235 232 230 228 230 234 233 230 227 226 227 228 225 225 224 217 213 215 218 222 227 230 232 232 231 230 231 234 238 240 239 241 243 246 248 249 249 250 250 249 247 246 245 245 247 252
220 225 232 229 227 230 230 226 225 225 224 224 228 232 233 236 239 242 243 244 245 247 248 249 250 248 244 241 239 239 242 242 238 235 237 238 238 237 238 238 238 236 233 232 231 233 237 239 237 236 233 229 228 225 222 220 217 215 219 225 229 230 230 232 233 233 234 235 237 239 240 240 241 242 242 243 246 248 248 247 246 245 245 245 246 249 255
247 247 243 236 234 237 236 233 230 226 227 232 236 241 242 242 242 243 243 243 244 245 245 244 245 245 243 239 236 234 237 243 245 242 239 239 240 240 240 240 240 238 235 235 237 238 240 242 241 240 236 233 231 230 226 224 224 224 223 224 226 227 229 231 232 233 235 236 238 240 241 242 242 241 242 244 248 249 248 247 246 246 247 248 250 254 258
247 246 242 238 237 241 244 247 248 246 247 252 256 256 255 252 249 244 241 241 241 242 241 240 239 241 241 239 235 233 233 238 243 245 242 240 240 240 241 241 241 241 239 238 241 242 242 244 246 245 240 233 230 229 228 226 226 227 225 224 225 229 232 233 234 235 237 238 240 241 243 245 245 246 247 248 248 247 246 246 246 247 249 251 254 258 260
240 240 239 241 242 244 247 251 255 257 259 262 262 259 258 259 256 248 243 242 241 237 235 235 236 238 240 239 237 235 235 237 240 242 241 239 239 240 241 241 240 241 241 241 242 242 240 241 244 246 242 234 225 223 225 226 226 226 227 228 230 233 236 237 238 239 241 242 243 243 245 246 247 248 248 249 248 248 248 248 249 250 252 255 257 260 262
230 233 237 241 242 245 249 254 259 264 267 266 261 259 259 259 259 254 247 245 245 242 237 234 236 237 239 240 238 234 235 242 245 243 239 236 236 237 239 239 239 239 240 242 241 239 237 239 242 243 242 238 232 226 223 224 226 228 230 232 235 236 238 240 242 243 243 243 244 245 245 246 246 247 247 248 249 250 251 253 254 254 255 256 258 261 263
220 225 236 241 241 245 250 254 260 264 264 261 258 258 256 253 255 253 240 235 243 249 246 241 241 240 239 239 237 232 234 242 245 239 233 230 232 235 238 240 241 240 240 240 238 234 234 239 243 244 243 242 240 234 229 227 227 230 234 236 238 238 238 238 239 240 242 243 244 245 246 247 248 248 248 248 250 252 253 254 254 254 254 254 257 261 263
214 224 236 240 238 243 248 250 253 255 255 254 252 251 247 239 237 240 236 233 241 248 243 232 231 237 241 242 238 232 231 233 234 232 229 227 229 234 238 242 243 242 240 240 239 238 239 244 245 243 243 243 239 235 232 231 230 233 236 239 240 240 239 237 237 237 239 241 243 245 246 247 248 249 249 250 251 253 255 255 254 253 253 255 258 261 262
217 223 231 235 237 242 248 251 251 249 248 249 245 241 239 232 228 233 237 238 242 244 239 230 227 233 243 248 244 237 234 235 238 241 239 236 235 238 240 242 244 245 246 247 248 248 250 252 251 248 246 246 241 236 234 234 235 237 239 240 240 241 242 242 240 240 241 242 243 245 246 248 249 250 251 253 254 255 256 256 255 256 257 259 262 264 264
203 212 221 228 235 241 245 248 250 247 244 244 241 238 238 235 233 236 239 241 243 243 241 238 236 237 242 245 244 241 239 242 246 249 250 249 247 246 245 246 248 249 250 252 253 254 254 254 254 252 249 246 240 235 233 235 238 240 240 240 240 240 243 245 245 246 247 247 246 247 248 249 249 248 249 251 253 254 255 257 258 260 262 265 266 267 268
194 210 221 228 234 240 244 247 248 245 242 242 242 243 243 244 244 244 244 246 246 243 242 241 240 237 233 231 231 231 231 235 241 244 246 246 244 242 243 245 247 249 249 249 251 252 252 251 249 248 245 242 239 235 233 234 236 238 239 239 238 239 242 244 245 247 247 246 247 248 250 251 251 252 253 255 257 257 258 259 261 263 265 267 268 269 270
199 216 226 234 240 245 248 251 252 250 247 246 249 251 252 252 253 251 248 247 244 240 238 237 236 235 231 226 227 229 230 232 233 233 231 230 228 227 229 232 234 234 234 236 238 240 241 241 240 239 239 239 239 239 239 238 237 238 238 238 238 239 240 242 243 244 245 245 246 247 249 251 254 257 259 261 262 262 263 264 265 266 267 268 269 269 270
212 227 231 237 245 249 251 254 255 254 253 253 254 254 252 250 250 250 248 245 241 237 235 231 225 224 225 224 224 226 230 233 236 237 237 236 237 237 236 236 236 233 229 228 229 231 231 232 232 232 235 237 238 240 241 242 241 241 241 241 242 242 243 243 244 246 247 248 249 250 252 256 259 260 262 263 264 265 265 266 267 267 268 269 270 271 272
259 274 266 261 262 263 263 263 261 260 260 259 259 258 256 254 252 250 249 248 246 242 242 240 234 227 225 225 224 224 224 225 228 233 238 242 246 249 250 249 249 248 244 240 239 239 240 239 238 238 239 240 240 241 241 242 242 243 244 245 246 246 247 248 249 251 252 254 255 257 259 261 262 262 263 264 265 266 267 268 269 270 271 272 273 274 275
12 354 337 320 306 297 291 286 280 276 273 269 266 264 263 261 260 257 255 254 253 250 248 247 246 243 239 238 238 237 234 231 228 228 231 235 239 243 247 251 253 254 254 252 251 251 251 251 250 249 248 246 244 243 242 242 243 245 247 249 250 251 253 254 255 256 257 259 260 261 262 262 262 263 264 265 267 268 269 270 271 272 273 273 274 273 273
3 350 339 330 320 312 307 302 296 292 288 284 279 276 272 269 266 264 262 260 259 257 255 252 251 250 248 246 245 246 247 245 241 238 237 237 238 238 240 244 247 249 250 250 251 252 253 253 252 250 249 247 245 244 243 244 245 246 248 249 251 252 253 255 256 257 259 260 261 262 263 264 264 265 266 266 267 268 269 270 271 271 272 272 272 271 272
348 337 328 320 314 308 303 299 295 292 289 286 283 281 278 276 272 270 268 265 263 262 261 259 256 254 252 250 248 246 246 246 247 247 246 246 246 245 243 243 243 245 245 246 247 249 250 251 251 250 250 249 248 247 247 247 247 248 248 249 250 250 251 253 254 256 258 259 261 262 263 264 265 265 266 266 267 268 269 269 270 270 270 271 271 272 273
338 332 325 320 315 310 305 300 295 291 287 283 281 278 276 275 273 271 269 268 266 265 263 263 261 258 256 255 253 251 249 248 249 249 250 250 251 251 251 250 249 248 248 248 249 249 250 251 252 253 254 255 255 255 255 255 255 255 255 254 254 255 255 255 256 258 259 261 262 263 264 265 265 266 266 266 267 267 268 268 268 269 270 271 272 273 274
327 322 319 317 314 311 308 304 299 295 290 285 280 277 274 272 270 268 267 266 265 264 262 262 262 261 260 258 257 255 254 254 253 253 254 254 253 253 252 252 253 253 253 253 254 254 254 255 257 258 259 260 260 261 261 261 261 262 262 262 262 262 262 262 262 262 262 263 263 264 264 265 265 266 266 266 266 267 267 268 269 269 270 271 272 273 273
317 314 312 311 309 307 305 302 300 297 295 291 286 281 277 273 270 268 266 264 263 262 261 260 259 259 259 259 258 257 255 254 254 255 255 256 256 256 255 255 255 256 257 257 258 258 259 260 261 262 262 262 263 263 262 262 262 263 264 265 266 266 267 268 268 268 267 267 267 267 267 267 268 268 269 269 269 270 270 270 271 271 272 272 273 273 273
318 316 314 312 311 309 307 304 302 299 298 296 293 289 285 281 277 273 270 268 266 265 263 262 260 259 258 257 257 256 256 255 254 254 254 255 256 257 258 258 259 259 259 259 260 261 261 262 263 263 264 264 265 265 265 265 265 265 266 267 267 268 268 269 269 269 269 269 269 269 269 269 270 270 271 271 271 271 272 272 272 272 272 272 273 273 274
321 319 316 314 314 314 313 311 309 308 306 303 299 295 292 288 284 280 276 273 271 269 267 266 264 262 260 258 257 256 255 255 255 254 254 254 254 255 257 258 259 260 261 261 261 262 262 263 263 264 265 266 267 268 268 269 269 269 270 270 270 270 270 270 270 270 269 269 270 270 270 270 270 271 271 271 271 272 272 272 272 272 273 273 273 273 273
322 319 318 319 320 321 321 320 320 320 319 315 311 306 300 295 291 286 282 278 274 271 269 267 265 264 262 260 258 257 256 255 255 255 255 255 255 255 255 256 257 259 260 261 262 262 263 263 263 264 265 265 267 268 269 269 270 270 270 270 271 271 271 271 271 271 271 271 271 271 271 270 270 270 270 270 271 271 272 272 272 272 272 273 273 274 274
321 321 322 325 327 328 328 328 328 328 325 321 316 311 306 300 295 291 287 283 278 274 271 268 266 264 263 261 260 259 258 257 256 256 256 256 256 256 256 256 256 257 258 259 261 262 263 263 263 264 264 265 265 266 267 267 268 268 269 270 270 270 271 271 271 271 271 270 270 270 269 269 268 269 269 270 271 272 272 272 272 273 274 275 275 276 276
322 324 327 330 331 332 333 333 333 330 326 322 318 313 308 302 296 292 290 286 282 279 276 272 269 266 265 264 263 262 261 260 259 258 257 257 257 257 257 257 257 257 258 258 259 260 261 262 263 263 263 264 264 264 265 265 266 266 267 267 268 268 268 268 268 268 268 268 268 268 268 269 269 270 271 272 272 273 274 274 275 276 277 277 277 277 278
324 327 330 332 334 335 337 337 336 332 327 324 322 318 314 307 300 296 293 289 286 284 281 278 276 274 272 270 268 267 266 265 264 263 262 261 260 259 259 258 258 258 257 258 258 258 259 260 261 262 262 263 263 263 263 264 264 265 265 265 265 265 266 266 266 266 266 267 267 268 270 271 272 272 273 274 274 275 275 276 277 278 279 280 280 280 281
326 329 331 333 335 339 340 340 338 334 331 329 327 324 319 313 306 301 297 293 290 286 283 282 283 283 280 278 275 273 272 271 270 269 267 266 264 262 261 260 259 258 257 257 257 257 257 257 258 259 259 260 261 261 262 262 263 263 263 264 264 264 264 264 265 266 266 267 268 269 270 272 273 274 274 275 275 276 277 278 279 280 281 281 280 280 280
327 329 330 332 336 341 343 343 341 338 335 334 333 329 322 314 306 300 296 294 290 287 284 284 286 286 286 285 283 280 277 275 273 271 269 268 266 264 262 261 260 258 257 256 255 255 255 255 255 256 256 257 258 259 260 261 262 263 263 263 263 264 264 264 265 266 267 268 269 269 270 272 273 274 274 275 276 277 278 278 278 278 278 277 277 277 277
327 328 329 332 336 342 345 345 344 341 338 337 337 334 327 318 307 299 296 294 292 288 286 285 287 288 289 288 287 285 281 278 274 272 269 268 266 264 262 260 259 258 257 256 255 254 254 253 254 254 254 255 257 258 259 260 261 262 262 262 263 264 264 265 266 267 268 269 270 270 271 271 272 272 272 272 273 273 274 274 274 274 274 275 276 277 279
327 327 328 331 336 341 345 347 346 345 342 340 340 339 333 324 313 303 298 295 292 289 287 286 287 289 289 288 287 286 283 280 277 274 271 268 266 265 262 260 258 257 256 255 254 254 254 254 254 254 254 254 255 256 256 257 258 259 260 261 262 263 264 265 266 267 268 269 269 269 269 269 268 267 267 266 267 267 268 268 270 271 273 275 277 279 280
327 327 329 331 334 339 344 347 348 347 345 343 343 342 340 332 320 308 300 296 293 290 288 288 289 290 290 290 288 286 284 282 280 277 274 271 269 267 265 263 261 259 257 255 254 253 253 253 253 253 253 253 253 254 255 255 256 257 258 259 260 261 262 264 264 265 266 266 266 265 265 263 262 261 261 261 262 263 265 266 268 270 273 276 278 279 280
328 328 328 330 333 337 342 346 348 348 347 345 344 343 342 338 330 318 305 298 294 292 291 291 291 292 292 291 291 290 288 286 284 281 278 276 273 270 268 266 264 263 261 259 257 255 253 252 251 251 251 251 252 253 253 254 255 256 257 258 259 260 261 261 262 262 262 261 260 259 258 256 256 257 257 259 261 262 264 266 268 271 274 276 277 278 279
328 328 327 328 330 334 339 345 348 348 347 346 345 344 343 341 338 330 318 306 298 294 292 291 291 291 290 291 293 294 293 291 287 285 282 279 276 273 270 268 266 265 263 261 259 256 255 254 252 251 250 250 250 250 251 252 253 254 255 256 257 258 258 258 258 257 257 255 254 252 250 250 252 254 256 258 260 262 264 267 269 272 274 275 277 279 281
327 326 326 326 328 331 336 342 346 347 347 345 344 343 343 341 339 336 330 320 309 300 295 293 293 291 290 289 291 293 294 292 290 287 285 283 280 275 272 269 267 265 263 261 258 255 254 253 252 252 251 250 250 250 250 251 252 253 254 254 254 254 254 254 253 253 251 249 246 245 246 248 251 254 257 260 262 264 266 268 270 272 274 275 279 282 286
325 326 325 324 325 328 333 338 342 346 346 345 343 342 341 340 338 336 333 328 320 310 302 296 294 293 291 289 289 290 291 290 290 289 289 290 288 283 277 272 268 266 264 261 258 255 253 252 251 251 251 251 251 252 252 252 252 252 252 252 252 252 251 250 249 247 244 242 241 242 245 249 252 255 258 260 263 264 266 268 270 272 276 280 285 289 292
324 325 324 323 323 326 330 333 338 342 344 345 343 340 339 338 337 336 334 332 327 319 310 302 297 295 294 292 292 291 289 288 287 287 288 289 290 289 285 279 274 269 266 263 260 258 255 253 252 251 251 251 252 252 253 253 253 253 252 252 251 250 249 247 244 241 239 238 239 242 245 249 252 254 257 259 262 264 266 269 273 277 282 287 290 293 295
324 324 323 322 322 324 326 329 333 337 340 343 343 341 337 335 334 334 334 332 329 324 316 308 302 299 298 297 296 294 291 288 287 287 287 288 289 288 285 281 277 273 270 267 264 260 257 255 253 252 251 250 250 250 251 252 252 252 252 252 250 248 245 242 239 237 237 238 240 243 246 247 249 252 255 258 261 265 268 273 278 283 287 290 293 295 297
325 324 323 322 322 322 323 326 329 332 335 338 340 340 337 334 332 332 331 330 327 324 319 310 303 299 298 297 296 294 292 291 291 291 292 292 290 288 284 280 276 271 269 268 266 263 260 257 254 253 252 251 251 250 250 250 250 250 251 250 249 246 241 237 235 236 239 242 243 244 244 245 247 249 253 257 261 266 271 277 282 286 289 292 294 296 300
327 325 324 323 321 320 321 323 325 328 330 334 337 338 337 334 331 329 327 325 324 322 320 314 307 301 298 297 295 293 292 291 292 293 293 291 289 286 283 280 276 271 268 266 265 263 262 259 256 254 253 252 252 251 251 249 249 249 249 249 247 243 238 235 235 239 242 244 244 242 241 241 242 246 251 256 260 266 271 278 283 287 290 293 295 299 304
330 327 324 322 321 319 320 321 322 323 326 330 333 335 336 335 332 328 324 321 320 319 318 314 308 303 301 299 297 295 294 293 293 293 292 289 287 284 282 280 277 273 270 267 265 263 261 260 258 255 253 252 251 251 250 249 249 248 248 247 245 240 235 234 238 241 243 242 241 238 236 236 239 243 249 254 258 264 270 277 283 287 290 293 298 304 309
334 329 326 323 321 319 319 319 319 320 322 325 328 330 332 332 331 328 323 319 316 315 314 310 305 302 302 302 300 298 297 297 297 296 295 292 289 286 283 280 277 274 271 269 267 264 262 260 259 257 256 254 253 252 250 248 248 247 246 245 242 236 232 234 240 243 242 239 236 233 233 234 237 242 246 250 255 261 269 276 282 286 290 294 300 306 311
336 333 329 326 323 321 319 318 317 317 319 322 324 326 327 328 328 326 323 318 314 311 309 306 302 299 299 300 300 299 298 298 299 298 298 296 292 289 285 282 279 276 274 271 269 266 263 261 260 260 259 258 256 253 251 248 246 245 243 242 238 234 232 235 240 241 239 235 232 231 232 234 237 241 244 249 254 261 269 276 281 284 289 295 302 308 311
336 333 331 329 326 323 320 318 317 316 317 319 321 322 324 324 324 323 322 318 313 308 304 302 299 296 295 296 296 295 295 295 296 297 297 295 292 290 289 287 285 283 281 279 276 272 268 264 262 260 260 260 259 255 251 247 243 240 238 237 235 234 234 236 239 238 234 231 230 231 232 235 238 242 245 250 254 260 267 273 277 282 288 295 301 306 308
335 333 332 330 327 324 321 319 317 317 317 318 319 320 321 321 321 321 320 317 312 306 301 298 295 292 290 289 289 289 288 288 289 290 289 288 287 289 293 296 297 296 292 287 283 278 273 268 263 259 257 257 256 254 251 246 242 238 236 236 236 235 235 235 234 232 229 227 228 229 232 235 239 242 245 249 253 258 264 269 274 279 285 291 297 302 304
336 334 332 330 327 324 322 320 319 318 317 318 318 319 319 319 318 317 317 315 310 304 299 295 292 289 286 283 282 282 283 282 282 280 278 277 276 278 282 289 297 300 300 296 291 284 277 271 265 260 256 254 253 252 250 246 242 238 236 235 235 234 232 230 229 227 226 226 228 231 234 237 240 243 245 248 251 256 261 266 270 275 280 286 291 295 298
Height
5669 5670 5671 5673 5674 5675 5676 5678 5680 5682 5683 5685 5686 5687 5688 5690 5691 5691 5692 5693 5694 5696 5698 5699 5700 5701 5702 5703 5703 5704 5705 5705 5706 5706 5707 5707 5707 5707 5707 5707 5707 5707 5706 5707 5707 5707 5706 5706 5707 5711 5716 5720 5722 5722 5723 5724 5726 5728 5730 5732 5732 5734 5736 5737 5738 5740 5741 5742 5743 5744 5746 5748 5749 5750 5752 5753 5754 5755 5757 5758 5758 5759 5759 5760 5761 5761 5762
5666 5667 5668 5669 5670 5671 5673 5675 5677 5678 5680 5681 5683 5684 5686 5687 5688 5688 5690 5691 5692 5694 5695 5697 5698 5699 5699 5700 5701 5702 5703 5703 5704 5704 5704 5705 5705 5705 5705 5705 5704 5703 5703 5704 5705 5705 5706 5707 5709 5712 5716 5719 5720 5720 5720 5721 5723 5725 5727 5729 5730 5731 5733 5734 5736 5737 5738 5739 5740 5742 5744 5745 5746 5748 5749 5750 5752 5753 5754 5755 5756 5757 5757 5757 5758 5759 5759
5663 5664 5665 5666 5667 5668 5670 5672 5673 5675 5676 5678 5679 5681 5683 5684 5685 5686 5687 5689 5690 5691 5693 5694 5696 5696 5697 5698 5699 5699 5700 5701 5701 5702 5702 5702 5702 5702 5703 5702 5702 5701 5702 5702 5703 5704 5705 5707 5708 5711 5713 5716 5717 5717 5718 5719 5721 5722 5724 5726 5728 5729 5730 5732 5734 5734 5736 5737 5738 5739 5741 5742 5744 5745 5747 5748 5749 5750 5751 5752 5753 5754 5755 5755 5755 5756 5756
5660 5661 5663 5664 5665 5666 5667 5669 5670 5671 5673 5674 5675 5677 5679 5681 5682 5684 5685 5686 5687 5689 5690 5692 5693 5694 5695 5695 5696 5697 5698 5699 5699 5700 5700 5700 5700 5700 5700 5700 5700 5700 5700 5701 5702 5703 5704 5706 5707 5709 5710 5712 5713 5714 5715 5717 5718 5720 5721 5723 5725 5726 5728 5730 5731 5732 5734 5735 5737 5738 5739 5741 5742 5742 5744 5745 5746 5747 5748 5749 5750 5751 5752 5752 5753 5753 5753
5657 5658 5660 5661 5663 5664 5664 5665 5667 5668 5669 5670 5672 5674 5675 5677 5679 5680 5681 5683 5685 5686 5688 5689 5690 5691 5692 5693 5694 5694 5695 5696 5697 5697 5698 5698 5698 5699 5699 5699 5699 5699 5699 5700 5701 5702 5703 5705 5707 5708 5709 5709 5710 5712 5713 5714 5715 5717 5718 5720 5722 5723 5725 5727 5729 5730 5732 5733 5734 5736 5737 5738 5739 5740 5741 5742 5743 5744 5745 5746 5747 5747 5748 5749 5749 5750 5750
5655 5656 5657 5658 5659 5661 5662 5662 5663 5664 5665 5667 5668 5669 5671 5673 5675 5677 5678 5680 5682 5683 5684 5686 5687 5689 5689 5690 5691 5692 5693 5694 5694 5695 5695 5696 5696 5697 5697 5697 5697 5698 5698 5699 5700 5701 5703 5704 5705 5706 5707 5708 5709 5710 5711 5711 5713 5715 5716 5718 5720 5721 5722 5724 5726 5728 5730 5731 5732 5733 5735 5736 5736 5737 5738 5739 5740 5741 5741 5742 5743 5744 5744 5745 5746 5746 5747
5653 5653 5653 5654 5656 5658 5659 5660 5660 5661 5662 5663 5664 5666 5668 5670 5672 5674 5675 5677 5678 5679 5680 5682 5684 5686 5687 5688 5688 5689 5690 5691 5691 5692 5693 5694 5694 5695 5695 5695 5696 5697 5697 5698 5698 5700 5701 5703 5704 5705 5706 5707 5708 5709 5710 5709 5711 5713 5715 5716 5718 5719 5720 5722 5724 5725 5727 5728 5729 5730 5731 5732 5733 5734 5735 5735 5736 5737 5738 5739 5740 5740 5741 5742 5742 5743 5744
5650 5651 5651 5652 5654 5655 5656 5657 5658 5658 5659 5660 5661 5662 5664 5667 5669 5670 5672 5673 5674 5676 5677 5678 5680 5682 5684 5685 5685 5686 5687 5688 5688 5689 5690 5691 5692 5692 5693 5694 5694 5695 5696 5696 5697 5698 5699 5700 5702 5704 5705 5706 5707 5707 5708 5708 5708 5710 5712 5714 5715 5716 5718 5719 5720 5722 5723 5724 5725 5726 5728 5729 5730 5731 5732 5732 5733 5734 5735 5736 5737 5738 5738 5739 5740 5740 5741
5648 5649 5649 5650 5651 5653 5654 5655 5655 5656 5657 5658 5659 5660 5662 5663 5665 5666 5668 5669 5671 5672 5673 5674 5676 5678 5680 5681 5682 5683 5684 5685 5686 5687 5687 5688 5689 5690 5690 5691 5692 5693 5694 5695 5695 5696 5697 5697 5699 5701 5702 5703 5704 5704 5705 5706 5707 5708 5710 5711 5712 5713 5715 5716 5717 5719 5720 5721 5722 5723 5725 5726 5727 5728 5729 5730 5730 5731 5732 5733 5734 5735 5735 5736 5737 5737 5738
5646 5647 5647 5648 5650 5651 5652 5653 5654 5655 5656 5656 5658 5659 5659 5660 5661 5663 5664 5666 5667 5668 5669 5670 5672 5674 5676 5678 5679 5680 5681 5682 5683 5684 5685 5685 5686 5686 5687 5688 5689 5690 5692 5693 5693 5694 5695 5695 5696 5697 5698 5699 5700 5701 5703 5704 5705 5706 5707 5708 5709 5710 5712 5713 5714 5716 5717 5718 5719 5720 5721 5723 5724 5725 5726 5727 5727 5728 5729 5730 5731 5731 5732 5732 5733 5734 5735
5643 5644 5645 5646 5648 5649 5650 5651 5652 5653 5654 5655 5656 5657 5657 5657 5658 5659 5660 5662 5663 5664 5664 5666 5668 5670 5672 5674 5676 5677 5678 5679 5680 5681 5681 5682 5682 5683 5684 5685 5686 5687 5689 5690 5691 5692 5693 5693 5693 5695 5695 5696 5697 5698 5700 5701 5702 5703 5704 5704 5706 5707 5709 5710 5712 5713 5714 5715 5716 5717 5718 5720 5721 5721 5722 5723 5724 5725 5725 5726 5727 5728 5728 5729 5730 5730 5731
5641 5642 5643 5644 5645 5647 5648 5649 5650 5651 5652 5653 5654 5654 5655 5655 5656 5656 5657 5658 5659 5660 5661 5662 5664 5666 5667 5670 5672 5673 5674 5676 5676 5677 5678 5678 5679 5680 5680 5681 5682 5684 5685 5687 5688 5689 5690 5690 5691 5693 5693 5694 5694 5695 5697 5698 5699 5700 5701 5702 5704 5705 5706 5707 5708 5710 5711 5711 5713 5714 5715 5716 5717 5718 5718 5719 5720 5721 5721 5722 5723 5724 5725 5725 5726 5727 5727
5638 5640 5641 5642 5643 5645 5646 5647 5648 5649 5650 5651 5652 5652 5653 5653 5653 5654 5655 5655 5656 5657 5658 5659 5660 5662 5663 5665 5668 5669 5671 5671 5672 5672 5674 5675 5675 5676 5677 5677 5678 5680 5681 5683 5684 5686 5687 5687 5688 5689 5691 5691 5691 5692 5694 5696 5696 5697 5699 5700 5701 5702 5703 5704 5705 5706 5707 5708 5709 5710 5711 5712 5713 5714 5715 5715 5716 5717 5717 5718 5719 5720 5721 5721 5722 5722 5723
5637 5638 5640 5641 5642 5643 5644 5645 5646 5647 5648 5648 5649 5650 5651 5651 5652 5652 5653 5653 5653 5654 5655 5656 5657 5658 5660 5661 5663 5665 5666 5667 5667 5667 5669 5670 5671 5672 5673 5674 5675 5676 5677 5679 5680 5682 5683 5684 5685 5686 5687 5688 5688 5690 5691 5693 5694 5695 5695 5696 5697 5698 5700 5701 5702 5703 5703 5704 5706 5707 5707 5708 5709 5710 5711 5711 5712 5713 5713 5714 5715 5715 5716 5716 5717 5717 5718
5636 5637 5638 5639 5640 5641 5642 5643 5643 5644 5645 5646 5647 5648 5649 5649 5650 5650 5650 5651 5651 5652 5654 5654 5654 5655 5656 5658 5659 5660 5662 5663 5663 5663 5665 5666 5667 5668 5669 5670 5672 5673 5674 5675 5676 5678 5679 5680 5681 5683 5683 5684 5685 5686 5688 5689 5691 5692 5692 5693 5693 5694 5696 5697 5698 5699 5700 5701 5702 5702 5703 5704 5704 5705 5706 5707 5708 5709 5709 5710 5710 5711 5711 5711 5712 5712 5713
5635 5636 5637 5638 5639 5640 5640 5641 5642 5642 5643 5644 5645 5646 5646 5647 5648 5648 5648 5648 5649 5650 5651 5652 5652 5652 5653 5654 5656 5657 5657 5658 5659 5660 5661 5663 5664 5665 5666 5667 5668 5669 5670 5671 5672 5673 5675 5675 5677 5678 5680 5680 5681 5682 5683 5685 5687 5688 5688 5689 5690 5690 5691 5693 5694 5696 5697 5697 5698 5698 5699 5700 5701 5701 5702 5703 5704 5704 5705 5705 5706 5706 5706 5707 5707 5707 5708
5633 5635 5636 5637 5638 5638 5639 5640 5640 5641 5641 5642 5643 5644 5644 5645 5645 5646 5646 5647 5647 5647 5647 5648 5649 5650 5651 5652 5653 5653 5654 5655 5655 5656 5658 5659 5660 5661 5662 5663 5664 5665 5666 5667 5668 5669 5670 5671 5672 5674 5675 5676 5677 5677 5678 5680 5681 5683 5684 5685 5686 5687 5688 5689 5690 5692 5693 5694 5694 5695 5695 5696 5697 5698 5698 5699 5699 5700 5700 5701 5701 5701 5701 5702 5702 5702 5702
5633 5634 5635 5636 5636 5637 5638 5638 5639 5639 5640 5640 5641 5641 5642 5642 5643 5643 5644 5644 5645 5645 5645 5645 5646 5647 5648 5649 5650 5651 5652 5652 5653 5654 5654 5655 5656 5657 5658 5659 5660 5661 5662 5663 5664 5665 5666 5667 5669 5670 5671 5672 5673 5673 5674 5675 5676 5677 5679 5680 5681 5683 5684 5685 5686 5687 5688 5689 5690 5690 5691 5692 5692 5693 5694 5694 5695 5695 5695 5696 5696 5696 5696 5696 5696 5696 5696
5632 5633 5634 5635 5635 5636 5636 5636 5637 5637 5638 5638 5639 5639 5639 5640 5640 5641 5641 5642 5642 5643 5643 5643 5644 5644 5645 5646 5647 5648 5649 5650 5650 5651 5652 5652 5653 5654 5654 5655 5656 5657 5658 5659 5660 5661 5662 5663 5664 5666 5667 5668 5668 5669 5670 5671 5672 5673 5674 5675 5676 5678 5679 5680 5681 5682 5683 5684 5684 5685 5686 5687 5687 5688 5688 5688 5689 5689 5689 5690 5690 5690 5690 5690 5690 5690 5689
5631 5632 5633 5634 5634 5634 5635 5635 5635 5635 5636 5636 5636 5637 5637 5637 5638 5638 5638 5639 5639 5640 5640 5641 5641 5642 5642 5643 5644 5645 5645 5646 5647 5648 5648 5649 5649 5650 5650 5651 5652 5653 5654 5655 5656 5657 5658 5659 5660 5661 5662 5663 5664 5665 5666 5667 5668 5669 5669 5670 5671 5672 5674 5675 5676 5677 5678 5678 5679 5679 5680 5681 5682 5682 5682 5682 5683 5683 5683 5683 5684 5684 5683 5683 5683 5683 5682
5631 5631 5632 5633 5633 5633 5633 5633 5634 5634 5634 5634 5634 5634 5634 5634 5634 5635 5635 5635 5636 5636 5636 5637 5638 5638 5639 5640 5640 5641 5642 5642 5643 5644 5644 5645 5645 5646 5646 5646 5647 5648 5649 5650 5651 5652 5653 5654 5655 5656 5657 5658 5659 5660 5661 5662 5663 5664 5665 5666 5667 5668 5669 5670 5671 5672 5672 5673 5673 5674 5675 5676 5676 5676 5676 5677 5677 5677 5677 5677 5677 5677 5676 5676 5676 5676 5675
5631 5631 5631 5632 5632 5632 5632 5632 5632 5632 5632 5632 5632 5631 5631 5631 5631 5631 5631 5632 5632 5632 5632 5633 5633 5634 5635 5636 5636 5637 5637 5638 5639 5640 5640 5641 5641 5642 5642 5642 5642 5643 5644 5645 5646 5647 5648 5649 5650 5651 5652 5653 5654 5655 5656 5657 5658 5659 5660 5661 5662 5663 5664 5665 5666 5666 5667 5668 5668 5669 5669 5670 5670 5670 5671 5671 5671 5671 5670 5670 5670 5670 5669 5669 5669 5669 5669
5631 5631 5631 5631 5631 5631 5631 5631 5630 5630 5630 5629 5629 5629 5628 5628 5628 5627 5627 5627 5627 5628 5628 5629 5629 5629 5630 5631 5632 5632 5633 5633 5634 5635 5636 5636 5637 5637 5638 5638 5638 5639 5639 5640 5641 5642 5643 5644 5645 5646 5647 5648 5649 5650 5651 5652 5653 5654 5655 5656 5657 5658 5659 5660 5661 5661 5662 5662 5663 5663 5663 5664 5664 5665 5665 5665 5665 5665 5664 5664 5664 5663 5663 5663 5663 5662 5662
5631 5631 5630 5630 5630 5630 5629 5629 5628 5628 5627 5627 5626 5625 5625 5625 5624 5624 5624 5623 5623 5623 5623 5624 5624 5624 5625 5625 5626 5627 5627 5628 5628 5629 5629 5630 5631 5632 5632 5633 5634 5634 5635 5635 5636 5637 5638 5639 5640 5641 5642 5643 5644 5645 5646 5647 5648 5650 5651 5652 5653 5654 5655 5655 5656 5656 5657 5657 5658 5658 5659 5659 5659 5659 5660 5659 5659 5659 5658 5658 5658 5657 5657 5657 5656 5655 5654
5630 5629 5629 5629 5628 5628 5627 5627 5626 5625 5624 5623 5623 5622 5621 5621 5620 5620 5619 5619 5619 5619 5619 5619 5619 5619 5620 5620 5621 5621 5622 5622 5622 5623 5623 5624 5625 5626 5627 5627 5628 5629 5629 5630 5631 5632 5633 5634 5635 5635 5636 5637 5638 5639 5640 5641 5642 5644 5645 5646 5647 5648 5649 5650 5650 5651 5652 5652 5652 5652 5653 5653 5653 5653 5653 5653 5653 5653 5652 5652 5652 5652 5651 5650 5649 5648 5646
5628 5628 5627 5627 5626 5625 5624 5623 5622 5621 5620 5619 5618 5617 5617 5616 5615 5615 5614 5614 5614 5614 5614 5614 5614 5614 5614 5615 5615 5616 5616 5616 5616 5617 5617 5618 5619 5620 5621 5621 5622 5623 5624 5625 5626 5627 5628 5628 5629 5629 5630 5631 5632 5633 5634 5635 5636 5637 5638 5639 5640 5641 5642 5643 5644 5644 5645 5645 5645 5646 5646 5645 5645 5645 5646 5646 5646 5646 5646 5646 5645 5645 5644 5643 5642 5641 5639
5627 5626 5625 5625 5624 5623 5621 5620 5618 5617 5615 5614 5613 5612 5611 5610 5609 5608 5608 5608 5608 5608 5608 5608 5608 5609 5609 5609 5609 5610 5610 5611 5611 5611 5611 5612 5613 5613 5614 5615 5616 5617 5618 5619 5620 5621 5622 5623 5623 5624 5624 5625 5626 5627 5628 5629 5630 5631 5632 5633 5633 5634 5635 5635 5636 5637 5637 5638 5638 5638 5638 5638 5638 5638 5638 5638 5638 5638 5638 5638 5638 5638 5637 5636 5634 5633 5631
5625 5624 5623 5622 5621 5620 5618 5616 5614 5612 5610 5607 5606 5605 5604 5602 5602 5601 5601 5601 5601 5601 5601 5601 5602 5602 5603 5603 5603 5604 5604 5605 5605 5605 5606 5606 5607 5607 5608 5609 5610 5611 5612 5613 5614 5615 5616 5616 5617 5618 5618 5619 5620 5621 5622 5623 5624 5625 5626 5627 5627 5628 5629 5629 5630 5630 5631 5631 5631 5631 5631 5631 5631 5631 5630 5630 5630 5631 5631 5630 5630 5630 5630 5629 5627 5626 5624
5623 5622 5621 5620 5618 5616 5614 5612 5609 5607 5604 5601 5599 5597 5596 5594 5594 5594 5594 5594 5594 5594 5594 5594 5595 5595 5596 5596 5597 5597 5598 5598 5598 5599 5600 5600 5601 5602 5602 5603 5603 5604 5605 5606 5608 5609 5609 5610 5610 5611 5612 5613 5614 5614 5615 5616 5617 5618 5619 5620 5621 5622 5622 5623 5623 5624 5624 5625 5625 5625 5625 5625 5625 5624 5624 5623 5623 5623 5623 5623 5622 5622 5621 5621 5620 5619 5617
5620 5619 5618 5617 5615 5613 5610 5607 5604 5601 5599 5597 5594 5592 5590 5589 5588 5588 5588 5588 5587 5587 5587 5588 5588 5588 5588 5589 5590 5590 5591 5591 5592 5592 5593 5593 5594 5595 5596 5597 5598 5598 5599 5600 5601 5602 5603 5604 5605 5606 5607 5607 5608 5609 5610 5610 5611 5612 5613 5614 5615 5615 5616 5616 5617 5617 5618 5618 5618 5618 5618 5618 5618 5618 5617 5617 5616 5616 5616 5615 5614 5614 5614 5614 5613 5612 5610
5618 5617 5615 5614 5611 5609 5606 5603 5600 5597 5595 5593 5591 5590 5588 5586 5585 5584 5584 5583 5583 5582 5582 5582 5582 5582 5582 5583 5583 5584 5584 5585 5585 5586 5586 5587 5588 5588 5589 5590 5591 5592 5593 5594 5595 5596 5597 5598 5599 5600 5601 5602 5603 5604 5604 5605 5605 5606 5607 5608 5609 5609 5610 5610 5611 5611 5611 5612 5612 5612 5612 5611 5611 5611 5611 5610 5610 5609 5609 5608 5607 5607 5607 5607 5606 5605 5604
5616 5614 5613 5611 5609 5606 5603 5600 5596 5594 5592 5590 5588 5587 5586 5584 5582 5582 5581 5581 5580 5579 5578 5578 5577 5577 5577 5577 5577 5578 5578 5579 5579 5580 5580 5581 5581 5582 5583 5584 5585 5586 5587 5588 5589 5590 5591 5592 5593 5594 5595 5596 5597 5598 5598 5599 5600 5600 5601 5602 5603 5603 5604 5604 5605 5605 5605 5605 5605 5605 5605 5605 5605 5604 5604 5603 5603 5603 5603 5602 5601 5601 5602 5601 5600 5599 5598
5613 5612 5610 5609 5607 5604 5601 5597 5594 5591 5589 5587 5585 5584 5582 5581 5580 5579 5579 5578 5577 5577 5576 5574 5574 5573 5573 5572 5572 5572 5573 5573 5574 5574 5574 5575 5576 5577 5577 5578 5579 5580 5581 5582 5583 5584 5585 5586 5587 5588 5589 5590 5591 5592 5592 5593 5594 5595 5596 5596 5597 5598 5598 5598 5599 5599 5599 5599 5599 5599 5599 5598 5598 5598 5598 5597 5597 5598 5597 5597 5596 5596 5596 5595 5595 5594 5593
5611 5609 5608 5606 5604 5602 5599 5596 5593 5590 5587 5585 5583 5581 5579 5578 5577 5576 5576 5575 5575 5574 5573 5572 5571 5570 5570 5569 5569 5568 5568 5568 5569 5569 5570 5570 5571 5571 5572 5573 5574 5574 5575 5576 5577 5578 5579 5580 5582 5583 5584 5584 5585 5586 5587 5588 5588 5589 5590 5591 5592 5592 5593 5593 5593 5593 5593 5594 5594 5594 5594 5593 5593 5593 5592 5592 5592 5592 5592 5592 5591 5591 5591 5590 5590 5589 5589
5609 5607 5606 5604 5602 5600 5597 5594 5591 5588 5586 5583 5581 5579 5577 5576 5575 5574 5573 5573 5572 5571 5570 5569 5569 5568 5567 5566 5566 5565 5565 5565 5565 5565 5565 5566 5566 5566 5567 5568 5568 5569 5570 5571 5572 5573 5574 5575 5576 5577 5578 5579 5580 5581 5582 5582 5583 5584 5585 5585 5586 5586 5587 5587 5587 5588 5588 5588 5588 5589 5589 5588 5588 5588 5587 5587 5587 5587 5587 5587 5587 5587 5587 5586 5586 5586 5585
5606 5605 5603 5602 5600 5598 5595 5592 5590 5587 5584 5582 5580 5577 5575 5574 5572 5571 5571 5570 5569 5569 5568 5567 5566 5565 5565 5564 5563 5562 5562 5561 5561 5561 5562 5562 5562 5562 5563 5563 5564 5564 5565 5566 5567 5568 5569 5570 5571 5572 5573 5574 5575 5575 5576 5577 5577 5578 5578 5579 5580 5581 5581 5581 5582 5582 5582 5583 5583 5583 5584 5584 5584 5583 5583 5583 5583 5583 5583 5583 5583 5583 5583 5583 5583 5582 5582
5604 5603 5601 5599 5598 5596 5593 5591 5588 5586 5583 5581 5578 5576 5574 5572 5570 5570 5569 5568 5567 5566 5566 5565 5564 5563 5562 5561 5560 5560 5559 5558 5558 5558 5558 5558 5558 5559 5559 5559 5560 5560 5560 5561 5562 5563 5564 5565 5566 5567 5568 5569 5570 5570 5571 5572 5572 5573 5573 5574 5575 5575 5576 5576 5577 5577 5578 5578 5578 5579 5579 5579 5579 5579 5579 5580 5580 5580 5580 5580 5580 5580 5580 5580 5579 5579 5578
5602 5600 5598 5597 5595 5593 5591 5588 5586 5583 5581 5579 5576 5574 5572 5570 5569 5568 5567 5566 5565 5564 5563 5563 5562 5561 5560 5559 5558 5557 5556 5556 5555 5555 5555 5555 5555 5555 5555 5555 5556 5556 5557 5557 5558 5558 5559 5560 5561 5562 5563 5564 5565 5565 5566 5567 5568 5568 5569 5569 5570 5571 5572 5572 5573 5573 5574 5574 5574 5575 5575 5575 5576 5576 5576 5576 5577 5577 5577 5577 5577 5577 5576 5576 5576 5575 5574
5599 5598 5596 5594 5592 5590 5588 5586 5584 5581 5579 5577 5575 5573 5571 5569 5568 5566 5565 5564 5563 5562 5561 5560 5560 5559 5558 5557 5556 5555 5554 5553 5553 5552 5552 5552 5551 5551 5551 5552 5552 5553 5553 5553 5554 5554 5555 5556 5557 5558 5559 5560 5560 5561 5562 5563 5563 5564 5565 5565 5566 5567 5568 5568 5569 5569 5570 5570 5571 5571 5571 5572 5573 5573 5573 5573 5574 5574 5574 5574 5574 5573 5573 5573 5572 5572 5571
5597 5595 5594 5592 5590 5588 5586 5584 5582 5580 5578 5576 5574 5572 5570 5568 5566 5564 5563 5562 5561 5560 5559 5558 5558 5557 5556 5555 5554 5553 5552 5551 5550 5550 5549 5549 5549 5548 5548 5548 5549 5549 5549 5550 5550 5551 5551 5552 5553 5553 5554 5555 5556 5557 5558 5558 5559 5560 5561 5562 5562 5563 5564 5564 5565 5565 5566 5567 5567 5568 5568 5569 5570 5570 5570 5571 5571 5571 5571 5571 5570 5570 5570 5569 5569 5568 5568
5595 5593 5592 5590 5588 5586 5584 5582 5580 5578 5576 5574 5572 5570 5568 5566 5564 5563 5561 5560 5559 5558 5557 5556 5555 5555 5554 5553 5552 5551 5550 5549 5549 5548 5548 5547 5547 5546 5546 5546 5546 5546 5546 5546 5547 5547 5548 5548 5549 5549 5550 5551 5552 5553 5554 5554 5555 5556 5557 5558 5558 5559 5560 5560 5561 5562 5563 5563 5564 5565 5565 5566 5567 5567 5567 5568 5568 5568 5567 5567 5567 5567 5566 5566 5565 5565 5564
5592 5591 5590 5588 5586 5584 5582 5581 5579 5577 5575 5573 5570 5569 5567 5565 5563 5561 5560 5558 5557 5556 5555 5554 5553 5553 5552 5551 5550 5550 5549 5548 5547 5546 5546 5545 5545 5544 5543 5543 5543 5543 5543 5543 5543 5544 5544 5545 5545 5546 5547 5547 5548 5549 5550 5551 5552 5552 5553 5554 5555 5555 5556 5557 5558 5558 5559 5560 5561 5562 5562 5563 5564 5564 5564 5564 5564 5564 5564 5564 5564 5564 5563 5562 5562 5561 5560
5590 5589 5587 5586 5584 5582 5581 5579 5577 5575 5573 5571 5569 5567 5565 5563 5562 5560 5558 5557 5555 5554 5553 5552 5551 5550 5550 5549 5548 5547 5546 5546 5545 5544 5544 5543 5542 5542 5541 5541 5540 5540 5540 5540 5540 5541 5541 5542 5542 5542 5543 5544 5545 5545 5546 5547 5548 5549 5549 5550 5551 5552 5552 5553 5554 5555 5556 5557 5558 5558 5559 5560 5560 5561 5561 5561 5561 5561 5561 5561 5561 5560 5560 5559 5558 5557 5556
5588 5586 5585 5583 5582 5580 5579 5577 5575 5573 5571 5570 5568 5566 5564 5562 5560 5558 5557 5555 5554 5552 5551 5550 5549 5548 5547 5546 5546 5545 5544 5543 5542 5542 5541 5540 5540 5539 5539 5538 5538 5537 5537 5537 5537 5538 5538 5538 5539 5539 5540 5540 5541 5542 5543 5544 5545 5545 5546 5546 5547 5548 5549 5550 5551 5552 5553 5554 5554 5555 5556 5556 5557 5557 5558 5558 5558 5558 5558 5557 5557 5557 5556 5555 5555 5554 5553
5585 5584 5582 5581 5580 5578 5577 5575 5573 5571 5569 5568 5566 5564 5562 5560 5558 5557 5555 5553 5552 5550 5549 5548 5547 5546 5545 5544 5543 5542 5541 5540 5539 5539 5538 5538 5537 5536 5536 5535 5535 5535 5534 5534 5534 5534 5535 5535 5536 5536 5537 5537 5538 5538 5539 5540 5541 5541 5542 5543 5544 5544 5545 5546 5548 5549 5550 5550 5551 5552 5552 5553 5553 5554 5554 5554 5554 5554 5554 5554 5554 5553 5553 5552 5551 5550 5549
5583 5581 5580 5579 5577 5576 5574 5573 5571 5569 5568 5566 5564 5562 5560 5558 5556 5555 5553 5551 5550 5548 5547 5546 5545 5544 5543 5542 5541 5540 5539 5538 5537 5537 5536 5535 5534 5534 5533 5533 5533 5532 5532 5532 5532 5532 5532 5532 5533 5533 5534 5534 5534 5535 5536 5536 5537 5538 5539 5540 5540 5541 5542 5543 5545 5546 5547 5547 5548 5548 5548 5549 5550 5550 5551 5551 5551 5551 5551 5551 5551 5550 5549 5549 5548 5547 5546
5581 5579 5578 5576 5575 5573 5572 5570 5569 5567 5565 5563 5561 5559 5558 5556 5554 5552 5551 5549 5548 5546 5545 5544 5543 5541 5541 5540 5539 5538 5537 5536 5535 5535 5534 5533 5532 5532 5531 5530 5530 5530 5529 5529 5529 5529 5529 5529 5529 5530 5530 5531 5531 5532 5532 5533 5534 5534 5535 5536 5537 5538 5539 5540 5541 5542 5543 5543 5544 5544 5545 5545 5546 5547 5547 5548 5548 5548 5548 5548 5548 5547 5546 5546 5545 5544 5543
5578 5577 5576 5574 5573 5571 5569 5568 5566 5565 5563 5561 5559 5557 5555 5554 5552 5550 5549 5547 5546 5544 5543 5542 5540 5539 5538 5537 5536 5535 5535 5534 5533 5532 5532 5531 5530 5529 5529 5528 5527 5527 5527 5527 5526 5526 5526 5526 5526 5527 5527 5528 5528 5528 5529 5530 5530 5531 5532 5533 5534 5535 5536 5537 5538 5539 5539 5539 5540 5540 5541 5542 5543 5543 5544 5544 5545 5545 5545 5545 5545 5544 5544 5543 5542 5541 5540
5576 5575 5573 5572 5570 5568 5567 5565 5564 5562 5561 5559 5557 5555 5553 5552 5550 5548 5546 5545 5543 5542 5541 5539 5538 5537 5536 5535 5534 5533 5532 5532 5531 5530 5530 5529 5528 5527 5526 5525 5525 5524 5524 5524 5524 5524 5524 5524 5524 5524 5524 5524 5525 5525 5526 5526 5527 5528 5529 5529 5530 5531 5533 5533 5534 5534 5535 5535 5536 5537 5538 5539 5539 5540 5541 5541 5542 5542 5542 5542 5542 5541 5541 5540 5539 5539 5538
5574 5573 5571 5569 5567 5566 5564 5563 5561 5560 5558 5556 5554 5553 5551 5549 5547 5546 5544 5542 5541 5539 5538 5536 5535 5534 5534 5533 5532 5531 5530 5530 5529 5528 5528 5527 5526 5525 5524 5523 5523 5522 5522 5522 5521 5521 5521 5521 5521 5521 5521 5522 5522 5522 5523 5523 5524 5525 5526 5526 5527 5528 5529 5530 5530 5531 5531 5532 5533 5534 5535 5535 5536 5537 5538 5538 5538 5539 5539 5539 5538 5538 5538 5537 5537 5536 5535
5572 5570 5568 5567 5565 5563 5561 5560 5558 5557 5555 5553 5552 5550 5548 5547 5545 5543 5541 5540 5538 5536 5535 5533 5532 5531 5531 5530 5529 5528 5528 5527 5527 5526 5526 5525 5524 5523 5522 5522 5521 5521 5520 5520 5519 5519 5519 5519 5519 5519 5519 5519 5519 5520 5520 5521 5521 5522 5523 5524 5524 5525 5525 5526 5527 5527 5528 5529 5529 5530 5531 5532 5533 5534 5534 5535 5535 5535 5535 5535 5535 5535 5535 5535 5534 5533 5533
5570 5568 5566 5564 5562 5560 5558 5557 5555 5554 5552 5550 5549 5547 5546 5544 5542 5540 5539 5537 5535 5534 5532 5531 5529 5529 5528 5527 5526 5526 5526 5525 5525 5524 5524 5523 5522 5522 5521 5520 5520 5519 5519 5518 5518 5517 5517 5517 5517 5517 5517 5517 5517 5517 5518 5518 5519 5519 5520 5520 5521 5522 5522 5523 5523 5524 5525 5526 5527 5527 5528 5529 5530 5530 5531 5531 5532 5532 5532 5532 5532 5532 5532 5532 5532 5531 5530